Preston, MN

8:36 AM CST on November 20, 2017 (GMT -0600)
Preston

Weather History for KFKA - December, 2012

Change the Weather History Date:

Friday, December 28, 2012

  Actual Average (KRST) Record (KRST)
Temperature  
Mean Temperature 20 °F -  
Max Temperature 23 °F 24 °F 51 °F (1984)
Min Temperature 18 °F 9 °F -20 °F (1892)
Degree Days  
Heating Degree Days 44    
Moisture  
Dew Point 18 °F    
Average Humidity 91    
Maximum Humidity 96    
Minimum Humidity 84    
Precipitation  
Precipitation 0.00 in - - ()
Sea Level Pressure  
Sea Level Pressure 29.99 in    
Wind  
Wind Speed 5 mph (NNE)    
Max Wind Speed 9 mph    
Max Gust Speed -    
Visibility 5 miles    
Events Snow    
Averages and records for this station are not official NWS values.
T = Trace of Precipitation, MM = Missing Value Source: NWS Daily Summary

Daily Weather History Graph

Daily Weather History Graph

Search for Another Location

Airport or City:

Trip Planner

Search our weather history database for the weather conditions in past years. The results will help you decide how hot, cold, wet, or windy it might be!

Date:

Astronomy

Dec. 28, 2012 Rise Set
Actual Time 7:41 AM CST 4:39 PM CST
Civil Twilight 7:09 AM CST 5:12 PM CST
Nautical Twilight 6:32 AM CST 5:48 PM CST
Astronomical Twilight 5:57 AM CST 6:23 PM CST
Moon 5:18 PM CST (12/28) 7:34 AM CST (12/28)
Length of Visible Light 10h 03m
Length of Day
8h 57m
Full, 100% of the Moon is Illuminated
Dec 28
Full
Jan 4
Last Quarter
Jan 11
New
Jan 18
First Quarter
Jan 26
Full

Hourly Weather History & Observations

Time (CST) Temp. Windchill Dew Point Humidity Pressure Visibility Wind Dir Wind Speed Gust Speed Precip Events Conditions
12:09 AM 18.5 °F 11.7 °F 16.9 °F 93% 30.08 in 3.0 mi ENE 4.6 mph - N/A Snow Light Snow
12:30 AM 18.5 °F 10.4 °F 16.7 °F 93% 30.07 in 2.0 mi ENE 5.8 mph - N/A Snow Light Snow
12:50 AM 18.5 °F 11.7 °F 16.7 °F 93% 30.07 in 4.0 mi ENE 4.6 mph - N/A Snow Light Snow
1:09 AM 18.5 °F 10.4 °F 17.1 °F 94% 30.07 in 7.0 mi ENE 5.8 mph - N/A Snow Light Snow
1:30 AM 18.5 °F 10.4 °F 17.2 °F 95% 30.07 in 7.0 mi ENE 5.8 mph - N/A Snow Light Snow
1:50 AM 18.9 °F 10.8 °F 17.4 °F 94% 30.07 in 7.0 mi ENE 5.8 mph - N/A   Overcast
2:10 AM 19.0 °F 11.1 °F 17.4 °F 93% 30.07 in 10.0 mi ENE 5.8 mph - N/A   Overcast
2:30 AM 19.0 °F 11.1 °F 17.4 °F 93% 30.07 in 10.0 mi East 5.8 mph - N/A   Overcast
2:50 AM 19.2 °F 11.3 °F 17.6 °F 93% 30.06 in 10.0 mi ENE 5.8 mph - N/A   Overcast
3:09 AM 19.2 °F 12.5 °F 17.6 °F 93% 30.06 in 7.0 mi ENE 4.6 mph - N/A   Overcast
3:30 AM 19.0 °F 13.9 °F 17.6 °F 94% 30.05 in 4.0 mi NE 3.5 mph - N/A Snow Light Snow
3:50 AM 19.0 °F 12.3 °F 17.6 °F 94% 30.04 in 2.5 mi NE 4.6 mph - N/A Snow Light Snow
4:10 AM 19.2 °F 14.1 °F 17.6 °F 93% 30.03 in 5.0 mi NE 3.5 mph - N/A Snow Light Snow
4:30 AM 19.2 °F 12.5 °F 17.6 °F 93% 30.03 in 5.0 mi ENE 4.6 mph - N/A Snow Light Snow
4:50 AM 19.2 °F 14.1 °F 17.6 °F 93% 30.03 in 5.0 mi ENE 3.5 mph - N/A Snow Light Snow
5:09 AM 19.2 °F 11.3 °F 17.6 °F 93% 30.02 in 7.0 mi ENE 5.8 mph - N/A   Overcast
5:30 AM 19.2 °F 12.5 °F 17.6 °F 93% 30.02 in 7.0 mi ENE 4.6 mph - N/A Snow Light Snow
5:50 AM 19.2 °F 11.3 °F 17.6 °F 93% 30.01 in 7.0 mi ENE 5.8 mph - N/A Snow Light Snow
6:10 AM 19.2 °F 12.5 °F 17.6 °F 93% 30.01 in 4.0 mi ENE 4.6 mph - N/A Snow Light Snow
6:30 AM 19.2 °F 11.3 °F 17.6 °F 93% 30.01 in 3.0 mi ENE 5.8 mph - N/A Snow Light Snow
6:50 AM 19.2 °F - 17.6 °F 93% 30.01 in 3.0 mi Calm Calm - N/A Snow Light Snow
7:10 AM 19.2 °F 12.5 °F 17.6 °F 93% 30.01 in 2.5 mi ENE 4.6 mph - N/A Snow Light Snow
7:30 AM 19.2 °F 12.5 °F 17.6 °F 93% 30.01 in 1.5 mi ENE 4.6 mph - N/A Snow Light Snow
8:10 AM 19.2 °F 14.1 °F 17.6 °F 93% 30.01 in 1.5 mi NE 3.5 mph - N/A Snow Light Snow
8:29 AM 19.4 °F 14.3 °F 17.6 °F 93% 30.01 in 1.2 mi NE 3.5 mph - N/A Snow Light Snow
8:50 AM 19.4 °F 12.8 °F 17.6 °F 93% 30.01 in 1.2 mi NE 4.6 mph - N/A Snow Light Snow
9:10 AM 19.4 °F 12.8 °F 17.6 °F 93% 30.01 in 2.0 mi NE 4.6 mph - N/A Snow Light Snow
9:29 AM 19.8 °F 14.7 °F 17.6 °F 91% 30.01 in 2.5 mi NE 3.5 mph - N/A Snow Light Snow
9:50 AM 20.3 °F 13.8 °F 17.8 °F 90% 30.01 in 2.5 mi NE 4.6 mph - N/A Snow Light Snow
10:10 AM 20.1 °F - 17.6 °F 90% 30.01 in 4.0 mi Calm Calm - N/A Snow Light Snow
10:30 AM 21.4 °F 16.6 °F 18.3 °F 88% 30.01 in 4.0 mi NE 3.5 mph - N/A Snow Light Snow
10:50 AM 21.4 °F 16.6 °F 18.1 °F 87% 30.01 in 5.0 mi NE 3.5 mph - N/A Snow Light Snow
11:10 AM 21.7 °F 17.0 °F 18.3 °F 87% 29.99 in 4.0 mi NE 3.5 mph - N/A Snow Light Snow
11:50 AM 22.1 °F 17.4 °F 18.7 °F 87% 29.98 in 3.0 mi ENE 3.5 mph - N/A Snow Light Snow
12:10 PM 22.6 °F - 19.0 °F 86% 29.96 in 3.0 mi Calm Calm - N/A Snow Light Snow
12:30 PM 22.8 °F 14.5 °F 19.0 °F 85% 29.95 in 4.0 mi NE 6.9 mph - N/A Snow Light Snow
12:50 PM 23.4 °F - 19.4 °F 85% 29.94 in 4.0 mi Calm Calm - N/A Snow Light Snow
1:10 PM 23.7 °F - 19.6 °F 84% 29.94 in 4.0 mi Calm Calm - N/A Snow Light Snow
1:30 PM 23.7 °F - 19.4 °F 84% 29.93 in 4.0 mi Calm Calm - N/A Snow Light Snow
1:50 PM 23.5 °F 19.1 °F 19.9 °F 86% 29.92 in 4.0 mi NE 3.5 mph - N/A Snow Light Snow
2:10 PM 23.4 °F 16.2 °F 19.9 °F 87% 29.92 in 4.0 mi North 5.8 mph - N/A Snow Light Snow
2:30 PM 23.0 °F 14.7 °F 19.6 °F 87% 29.92 in 5.0 mi North 6.9 mph - N/A Snow Light Snow
2:50 PM 23.0 °F 17.0 °F 19.4 °F 86% 29.93 in 7.0 mi North 4.6 mph - N/A Snow Light Snow
3:10 PM 22.6 °F 15.3 °F 19.4 °F 87% 29.93 in 4.0 mi NNE 5.8 mph - N/A Snow Light Snow
3:30 PM 22.5 °F 17.8 °F 19.4 °F 88% 29.94 in 5.0 mi North 3.5 mph - N/A Snow Light Snow
3:50 PM 22.1 °F 15.9 °F 19.4 °F 89% 29.94 in 7.0 mi NNE 4.6 mph - N/A Snow Light Snow
4:09 PM 21.9 °F 15.7 °F 19.2 °F 89% 29.94 in 5.0 mi North 4.6 mph - N/A Snow Light Snow
4:30 PM 21.6 °F 14.0 °F 19.0 °F 90% 29.94 in 4.0 mi North 5.8 mph - N/A Snow Light Snow
4:50 PM 21.2 °F - 19.0 °F 91% 29.94 in 5.0 mi Calm Calm - N/A Snow Light Snow
5:10 PM 21.2 °F 16.4 °F 19.0 °F 91% 29.95 in 7.0 mi North 3.5 mph - N/A Snow Light Snow
5:30 PM 21.0 °F - 19.0 °F 92% 29.95 in 5.0 mi Calm Calm - N/A Snow Light Snow
5:50 PM 20.7 °F 15.8 °F 18.9 °F 93% 29.95 in 5.0 mi North 3.5 mph - N/A Snow Light Snow
6:10 PM 20.3 °F 13.8 °F 18.9 °F 94% 29.95 in 3.0 mi NNW 4.6 mph - N/A Snow Light Snow
6:30 PM 20.3 °F 13.8 °F 18.9 °F 94% 29.95 in 4.0 mi NNW 4.6 mph - N/A Snow Light Snow
7:30 PM 19.6 °F 13.0 °F 18.3 °F 95% 29.95 in 5.0 mi North 4.6 mph - N/A Snow Light Snow
7:50 PM 19.4 °F 12.8 °F 18.3 °F 96% 29.96 in 5.0 mi North 4.6 mph - N/A Snow Light Snow
8:09 PM 19.4 °F 11.5 °F 18.1 °F 95% 29.95 in 5.0 mi North 5.8 mph - N/A Snow Light Snow
8:30 PM 19.2 °F 11.3 °F 18.0 °F 95% 29.95 in 7.0 mi North 5.8 mph - N/A Snow Light Snow
8:50 PM 19.2 °F 11.3 °F 18.0 °F 95% 29.94 in 7.0 mi North 5.8 mph - N/A Snow Light Snow
9:10 PM 19.2 °F 11.3 °F 17.6 °F 93% 29.95 in 10.0 mi North 5.8 mph - N/A   Overcast
9:30 PM 19.0 °F 12.3 °F 17.4 °F 93% 29.95 in 10.0 mi North 4.6 mph - N/A   Overcast
9:50 PM 18.9 °F 10.8 °F 17.2 °F 93% 29.95 in 10.0 mi NNW 5.8 mph - N/A   Overcast
10:10 PM 19.0 °F 10.0 °F 17.4 °F 93% 29.95 in 10.0 mi NNW 6.9 mph - N/A   Overcast
10:30 PM 19.0 °F 9.0 °F 17.4 °F 93% 29.95 in 10.0 mi NNW 8.1 mph - N/A   Overcast
10:50 PM 18.9 °F 9.8 °F 17.2 °F 93% 29.95 in 10.0 mi NNW 6.9 mph - N/A   Overcast
11:10 PM 19.0 °F 8.2 °F 17.4 °F 93% 29.94 in 7.0 mi NNW 9.2 mph - N/A   Overcast
11:30 PM 19.0 °F 9.0 °F 17.6 °F 94% 29.95 in 7.0 mi NNW 8.1 mph - N/A   Overcast
11:50 PM 18.9 °F 8.8 °F 17.4 °F 94% 29.94 in 7.0 mi North 8.1 mph - N/A   Overcast